Simultaneous Nadir Overpasses (SNOs) Predictions

Prediction of SNOs between TERRA and METOP-C Satellite Orbit:

Table of predicted SNOs for the next 14.0 days since TLE Epoch: 4/29/2023
Index Date (TERRA) Time (TERRA) Lat,Lon (TERRA) SZA (TERRA ) Date (METOP-C) Time (METOP-C) Lat,Lon (METOP-C) SZA (METOP-C ) Distance(km) Time Diff (sec)
1 04/29/2023 23:54:04 80.38,-150.06 66.98 04/29/2023 23:52:50 80.50,-150.33 67.04 14.74 74
2 04/30/2023 00:43:10 -80.87, 22.84 112.15 04/30/2023 00:43:13 -80.87, 22.81 112.15 0.68 3
3 05/02/2023 16:04:48 80.83, -28.14 66.98 05/02/2023 16:04:13 80.82, -28.27 66.95 2.40 35
4 05/02/2023 16:54:08 -80.89, 140.25 112.92 05/02/2023 16:54:50 -80.88, 140.11 112.93 2.79 42
5 05/05/2023 07:26:46 -80.15, -85.31 114.96 05/05/2023 07:25:32 -80.31, -85.91 114.89 21.50 74
6 05/05/2023 08:15:46 80.86, 89.42 66.26 05/05/2023 08:15:50 80.85, 89.31 66.24 1.89 4
7 05/07/2023 23:37:23 -80.83, 38.66 114.54 05/07/2023 23:36:48 -80.83, 38.62 114.55 0.72 35
8 05/08/2023 00:26:43 80.89,-152.88 65.59 05/08/2023 00:27:26 80.89,-152.81 65.61 1.36 43
9 05/10/2023 14:59:00 80.79, -12.25 64.69 05/10/2023 14:57:48 80.79, -12.32 64.65 1.40 72



Historial Predications of SNOs between TERRA and METOP-C
